Vorticity
9 9 9 9 8 8 7 2 9 11 3 -2 -5 7 9 10 3 3 7 10 3 5 1 17 13 11 12 17 10 12 14 -0 2 12 -2 10 12 21 4 -9 22 5 26 -1 2
11 12 12 10 8 9 11 12 6 -4 6 1 1 9 9 10 7 1 17 8 5 12 7 11 15 15 4 16 13 17 6 10 11 0 11 11 -2 20 -8 6 27 -6 42 -4 -8
14 13 12 11 10 10 12 14 8 13 -0 4 16 10 10 10 4 21 -3 1 10 11 9 16 14 8 8 6 -3 2 2 23 26 20 12 7 8 11 14 10 26 8 39 18 -4
13 13 12 10 9 11 12 12 4 4 21 8 2 9 13 8 9 -3 9 6 13 8 5 15 11 8 1 -1 7 3 0 12 13 13 11 15 16 -2 12 34 -6 14 64 16 30
11 13 14 12 10 9 10 -1 20 -0 -6 6 1 -10 9 7 5 9 2 7 11 9 7 12 4 4 7 4 1 22 3 16 3 -1 9 2 7 8 17 -9 -7 10 19 36 30
11 13 14 14 11 10 11 17 1 13 13 5 10 11 9 12 8 9 9 8 12 8 5 12 8 3 3 8 3 7 3 1 18 8 -1 8 1 5 43 41 -13 -19 2 48 29
11 12 12 18 16 12 9 11 10 9 -2 6 11 6 17 2 7 4 9 9 13 4 7 4 3 8 8 2 21 12 5 22 8 14 9 9 13 31 7 10 18 8 17 52 2
13 14 8 12 15 13 10 8 6 0 12 1 12 3 17 5 11 12 8 9 11 10 16 8 7 13 8 14 11 8 24 15 -3 13 6 18 -5 -14 1 1 32 7 31 36 20
22 16 12 5 16 11 14 13 11 16 9 15 -3 -1 14 17 7 8 10 9 12 10 7 12 6 8 8 9 1 19 -6 1 6 19 17 6 -2 28 26 -30 21 31 31 39 -5
13 19 14 11 6 15 16 21 10 11 -2 7 13 6 9 4 5 8 8 9 6 7 8 3 7 10 10 12 -11 -17 6 -2 1 -5 18 6 -13 5 9 11 29 27 -7 17 18
15 10 15 10 9 12 25 17 16 18 13 3 -6 21 -3 7 8 7 8 9 8 5 -4 6 7 -2 4 16 5 1 13 7 17 28 44 12 9 18 22 -4 47 11 -2 8 38
19 11 11 20 5 11 0 20 18 14 12 12 14 9 4 5 8 8 8 12 5 11 1 4 0 14 -6 5 9 5 -1 6 30 10 2 16 21 42 26 -6 24 -1 17 -5 19
30 28 19 13 23 14 17 20 10 1 5 5 12 10 4 8 3 7 8 11 9 12 12 4 -6 10 5 2 10 3 22 13 10 10 23 -4 12 11 40 38 6 13 17 1 14
26 30 23 19 20 17 8 -1 32 4 9 11 21 18 15 6 11 7 6 8 6 1 4 28 10 1 3 13 7 7 -5 -5 13 -3 7 11 -6 1 20 18 11 1 14 15 22
20 18 25 26 19 8 12 30 -8 -7 1 1 12 16 20 -0 14 21 8 9 5 10 14 8 7 9 31 25 -2 3 13 18 8 0 13 14 7 -27 22 26 21 2 17 26 8
19 18 22 14 19 -15 27 19 3 -4 11 11 20 24 12 3 1 7 10 9 22 16 3 13 18 14 12 12 21 21 11 23 25 11 14 2 24 -52 32 -4 15 10 12 22 13
10 12 12 16 25 6 25 16 -11 20 5 3 26 2 10 10 10 14 13 1 14 21 -7 14 8 -2 -6 20 27 17 21 6 8 6 1 -0 -29 -11 26 10 13 39 5 18 16
15 21 20 23 3 22 -6 7 15 17 32 19 14 -0 14 -1 11 7 16 -3 -2 11 21 8 14 20 4 16 18 0 17 17 8 11 -0 21 9 -12 -11 12 11 22 30 3 20
19 21 18 12 16 6 13 14 17 9 20 -0 -7 -2 8 12 15 1 7 9 3 11 19 5 -1 1 12 -6 22 7 13 17 9 18 10 20 61 -52 37 -1 14 26 -9 -6 11
9 11 1 10 4 5 4 13 27 10 10 8 22 35 12 4 8 10 10 -2 12 15 15 -4 12 -10 13 23 14 16 25 12 9 8 12 1 -27 8 12 13 20 8 15 10 28
18 15 32 14 12 -4 9 11 11 20 11 12 14 3 12 -3 7 6 0 7 9 14 7 16 10 5 23 5 7 17 25 9 9 19 14 9 -14 11 15 11 15 14 18 14 15
5 5 9 0 1 3 3 4 18 11 10 12 11 12 9 10 4 5 9 12 9 9 8 5 7 8 11 -4 5 -7 5 29 21 1 9 18 -17 5 6 8 9 10 11 11 11
11 6 12 6 -1 -5 4 2 9 17 8 12 14 14 16 12 1 10 12 6 9 11 14 17 7 10 2 -12 9 -5 1 11 9 5 7 12 0 1 6 -1 6 3 7 12 10
2 10 13 20 10 -2 4 2 4 17 4 13 7 7 2 11 10 -1 11 11 9 11 14 11 16 19 19 6 6 13 7 5 16 12 1 8 7 11 3 7 5 4 4 6 8
-3 2 6 7 5 5 9 -1 10 4 12 13 6 11 9 8 1 4 11 12 3 9 15 7 7 20 17 17 19 14 5 5 8 7 12 -3 9 6 7 0 2 6 6 8 7
9 6 10 13 0 8 4 -0 11 7 5 8 12 7 9 10 9 9 13 9 11 6 11 10 7 2 -3 4 13 12 8 6 8 5 13 13 4 1 4 4 -2 -1 5 4 5
6 3 3 8 9 6 4 4 11 3 3 7 7 8 8 8 10 13 12 10 10 7 11 10 8 12 1 8 10 -5 7 7 7 7 6 17 12 12 17 16 17 19 7 3 6
Height
3082 3080 3077 3075 3074 3072 3071 3071 3071 3071 3072 3072 3070 3069 3068 3066 3065 3063 3063 3064 3062 3062 3062 3060 3058 3058 3058 3059 3060 3063 3060 3051 3050 3053 3048 3054 3054 3055 3056 3055 3057 3057 3059 3067 3075
3075 3073 3070 3068 3066 3065 3065 3064 3063 3064 3066 3066 3066 3065 3063 3062 3061 3061 3061 3059 3058 3058 3059 3056 3054 3055 3055 3055 3055 3056 3052 3046 3047 3050 3047 3047 3047 3047 3047 3049 3047 3048 3050 3058 3065
3068 3066 3064 3063 3061 3059 3058 3058 3057 3057 3059 3060 3061 3060 3059 3059 3059 3058 3057 3054 3055 3055 3054 3052 3052 3053 3052 3052 3051 3049 3046 3048 3046 3047 3045 3042 3041 3041 3040 3040 3047 3048 3048 3052 3054
3060 3058 3056 3054 3053 3053 3052 3053 3055 3054 3053 3054 3056 3056 3054 3055 3057 3053 3052 3052 3051 3051 3050 3050 3051 3051 3049 3048 3048 3045 3043 3044 3043 3042 3041 3038 3037 3035 3035 3035 3040 3038 3038 3040 3041
3053 3051 3049 3047 3046 3045 3045 3048 3049 3049 3048 3048 3050 3051 3051 3052 3052 3050 3049 3048 3048 3048 3048 3048 3049 3049 3046 3046 3045 3042 3040 3039 3038 3036 3036 3035 3030 3029 3027 3030 3032 3031 3034 3030 3032
3045 3043 3040 3039 3038 3038 3039 3040 3042 3043 3043 3045 3044 3046 3048 3049 3048 3048 3046 3045 3046 3046 3046 3045 3047 3046 3044 3043 3041 3039 3036 3034 3034 3031 3031 3030 3026 3027 3019 3024 3024 3025 3026 3025 3030
3038 3034 3033 3032 3031 3031 3032 3033 3034 3036 3038 3040 3041 3042 3044 3045 3044 3043 3043 3043 3043 3044 3043 3044 3044 3044 3041 3040 3037 3036 3032 3030 3028 3028 3028 3028 3019 3016 3016 3015 3016 3017 3014 3015 3023
3030 3027 3026 3024 3023 3023 3025 3026 3029 3032 3032 3036 3036 3039 3040 3042 3041 3040 3040 3040 3041 3042 3041 3043 3042 3041 3039 3038 3035 3033 3030 3027 3026 3026 3024 3025 3009 3012 3013 3013 3009 3006 3009 3015 3023
3022 3020 3019 3018 3016 3016 3018 3020 3024 3025 3028 3031 3033 3036 3038 3038 3039 3038 3039 3039 3040 3039 3040 3041 3040 3039 3038 3037 3035 3032 3029 3026 3022 3023 3022 3019 3008 3008 3009 3007 3005 3004 3006 3010 3018
3015 3012 3010 3010 3010 3010 3012 3014 3017 3020 3024 3028 3030 3035 3035 3036 3036 3036 3037 3038 3038 3038 3040 3040 3039 3038 3037 3035 3033 3031 3027 3024 3021 3019 3015 3012 3004 3003 3005 3002 3001 3001 3006 3007 3013
3006 3005 3003 3003 3004 3005 3007 3009 3015 3018 3019 3026 3028 3029 3032 3034 3034 3035 3035 3037 3038 3037 3039 3038 3036 3035 3035 3033 3031 3029 3026 3023 3018 3014 3013 3009 3002 2998 2998 2996 2998 3003 3010 3014 3017
2999 2997 2997 2996 2999 3001 3003 3005 3009 3015 3019 3023 3025 3029 3030 3032 3033 3034 3035 3037 3036 3037 3037 3038 3034 3033 3031 3031 3029 3028 3025 3020 3016 3014 3013 3009 2999 2995 2994 2997 2999 2999 3006 3010 3014
2989 2988 2991 2992 2994 2998 3001 3004 3008 3012 3018 3023 3024 3027 3030 3032 3032 3033 3035 3036 3036 3035 3035 3034 3034 3032 3029 3028 3026 3024 3022 3019 3017 3015 3012 3009 2999 2994 2993 2994 2997 3001 3002 3010 3016
2985 2984 2986 2988 2994 2995 3000 3003 3007 3012 3019 3024 3024 3026 3029 3029 3033 3033 3034 3037 3035 3035 3033 3032 3030 3029 3028 3027 3025 3022 3020 3017 3015 3014 3013 3012 3009 3000 2995 3000 3001 3001 3004 3010 3016
2988 2986 2986 2988 2992 2996 3001 3004 3008 3013 3018 3026 3025 3026 3027 3032 3033 3033 3034 3035 3035 3034 3033 3032 3028 3026 3024 3023 3022 3019 3018 3015 3015 3014 3013 3012 3012 3010 3002 2999 3001 3007 3009 3012 3017
2992 2990 2990 2991 2993 2998 3000 3005 3011 3016 3021 3026 3025 3027 3029 3032 3033 3035 3036 3036 3035 3033 3031 3029 3028 3027 3025 3022 3019 3016 3014 3012 3011 3012 3012 3011 3011 3014 3010 3009 3005 3009 3011 3014 3018
2996 2994 2994 2996 2999 3002 3004 3008 3014 3016 3025 3029 3028 3030 3031 3034 3034 3036 3036 3035 3035 3033 3031 3029 3028 3028 3025 3020 3017 3016 3014 3013 3014 3015 3014 3012 3014 3023 3016 3013 3010 3012 3014 3015 3014
3001 2999 3000 3002 3004 3006 3009 3013 3015 3024 3025 3029 3030 3032 3034 3034 3036 3036 3037 3037 3035 3034 3031 3030 3030 3029 3026 3024 3020 3018 3018 3016 3012 3012 3013 3013 3021 3028 3021 3016 3012 3009 3013 3014 3017
3007 3006 3006 3009 3011 3012 3015 3015 3024 3027 3030 3033 3033 3035 3035 3036 3037 3037 3038 3038 3036 3034 3034 3033 3032 3031 3029 3026 3023 3020 3020 3020 3016 3015 3017 3025 3026 3023 3022 3018 3015 3013 3011 3014 3019
3016 3014 3014 3017 3019 3020 3021 3022 3029 3032 3033 3034 3036 3036 3038 3039 3039 3039 3039 3039 3038 3036 3035 3035 3033 3032 3030 3027 3025 3023 3022 3022 3019 3024 3023 3029 3030 3033 3028 3026 3022 3017 3012 3015 3017
3024 3021 3023 3026 3028 3027 3025 3030 3034 3035 3036 3037 3037 3039 3040 3040 3040 3040 3041 3041 3038 3036 3035 3034 3035 3035 3031 3029 3028 3026 3023 3024 3025 3027 3027 3031 3037 3036 3032 3030 3027 3025 3024 3022 3021
3030 3026 3031 3034 3034 3032 3034 3036 3038 3040 3040 3040 3041 3041 3041 3042 3042 3042 3042 3041 3039 3037 3035 3034 3035 3034 3034 3034 3032 3030 3028 3026 3027 3033 3033 3035 3041 3038 3035 3034 3032 3029 3028 3027 3025
3030 3032 3035 3036 3038 3038 3040 3041 3042 3043 3043 3043 3044 3045 3044 3044 3045 3044 3043 3041 3040 3039 3037 3036 3036 3035 3035 3036 3034 3033 3033 3032 3032 3033 3036 3037 3044 3041 3037 3034 3032 3032 3032 3030 3029
3031 3036 3038 3040 3040 3042 3043 3044 3045 3046 3046 3046 3047 3046 3046 3046 3045 3045 3044 3043 3041 3040 3038 3037 3036 3036 3039 3039 3039 3036 3036 3035 3035 3037 3041 3042 3042 3041 3039 3036 3033 3032 3031 3033 3033
3036 3040 3041 3043 3044 3043 3045 3048 3049 3049 3049 3049 3049 3048 3047 3047 3046 3045 3044 3044 3043 3042 3040 3040 3038 3038 3039 3039 3039 3038 3038 3038 3039 3040 3041 3042 3039 3039 3039 3037 3035 3035 3034 3033 3033
3045 3039 3042 3044 3046 3047 3048 3049 3050 3051 3051 3051 3050 3049 3049 3048 3047 3046 3045 3045 3044 3044 3042 3042 3041 3040 3040 3041 3041 3041 3040 3040 3039 3039 3039 3039 3039 3038 3038 3037 3037 3036 3035 3036 3035
3055 3048 3045 3046 3047 3049 3050 3051 3052 3052 3052 3052 3051 3050 3049 3048 3047 3046 3045 3045 3045 3044 3043 3042 3042 3041 3042 3041 3042 3043 3042 3040 3039 3038 3037 3037 3038 3036 3035 3034 3035 3034 3034 3036 3036